[[{"header":{"parameterUnit":"m.s-1","parameterCategory":1,"la1":30.2991,"la2":30.254,"lo1":-89.0895,"lo2":-89.0444,"dy":0.0017,"dx":0.0017,"nx":28,"ny":28,"refTime":"2025-09-10T21:00:00:Z","depth":0,"parameterNumber":2,"parameterNumberName":"U-component_of_WINDS"},"data":[0,0,0,0,0,0,0,0,0,0,0,0,0,0,0,0,0,0,0,0,0,0,0,0,0,0,0,0,0,0,0,0,0,0,0,0,0,0,0,0,0,0,0,0,0,0,0,0,0,0,0,0,0,0,0,0,0,0,-2.7566,-2.7565,0,-2.7513,-2.7512,-2.7511,-2.7447,-2.7446,-2.7445,-2.7444,-2.7391,-2.7391,-2.739,0,0,0,0,0,0,0,0,0,0,0,0,0,-2.7613,-2.7613,-2.7566,-2.7565,-2.7564,-2.7513,-2.7512,-2.7511,-2.7447,-2.7446,-2.7445,-2.7444,-2.7391,-2.7391,-2.739,0,0,0,0,0,0,0,0,0,0,0,0,0,-2.758,-2.7613,-2.7566,-2.7526,-2.7522,-2.7513,-2.7512,-2.7511,-2.7448,-2.7446,-2.7445,-2.7443,-2.7391,-2.7391,-2.739,-2.7416,0,0,-2.7388,-2.7388,0,0,0,0,0,0,0,0,-2.7582,-2.7578,-2.7533,-2.7529,-2.7524,-2.7485,-2.7509,-2.7479,-2.7448,-2.7476,-2.7444,-2.7443,-2.7424,-2.742,-2.7414,-2.7413,-2.7411,-2.7388,-2.7387,-2.7387,-2.7387,0,0,0,0,0,0,0,-2.7584,-2.758,-2.7545,-2.7532,-2.7527,-2.7512,-2.7505,-2.7503,-2.7459,-2.7474,-2.7469,-2.7463,-2.7421,-2.7414,-2.7412,-2.741,-2.7388,-2.7387,-2.7387,-2.7386,-2.743,-2.7432,0,0,0,0,0,0,-2.7592,-2.7582,-2.7546,-2.7543,-2.755,-2.7512,-2.7505,-2.7499,-2.7459,-2.7451,-2.7465,-2.746,-2.7416,-2.7413,-2.741,-2.7438,-2.7387,-2.7386,-2.7386,-2.7429,-2.7431,-2.7432,0,0,0,0,0,0,-2.7594,-2.759,-2.7549,-2.7561,-2.7555,-2.7513,-2.7507,-2.7499,-2.7492,-2.7452,-2.7444,-2.7466,-2.7415,-2.7411,-2.7415,-2.7436,-2.7386,-2.7385,-2.7427,-2.7429,-2.7431,-2.7495,0,0,0,0,0,0,-2.7595,-2.7591,-2.7599,-2.7562,-2.7555,-2.7554,-2.7508,-2.7499,-2.7491,-2.7485,-2.7451,-2.7444,-2.7414,-2.7417,-2.7414,-2.7434,-2.7385,-2.7425,-2.7428,-2.7431,-2.7491,-2.75,-2.7507,0,0,0,0,0,-2.7597,-2.7619,-2.76,-2.7596,-2.7565,-2.7556,-2.7551,-2.7516,-2.7493,-2.7502,-2.7476,-2.7445,-2.7434,-2.7417,-2.7414,-2.7434,-2.7423,-2.7427,-2.743,-2.7488,-2.7498,-2.7507,0,0,0,0,0,0,-2.766,-2.7614,-2.7592,-2.7602,-2.7584,-2.7545,-2.7555,-2.7527,-2.7515,-2.751,-2.7466,-2.7459,-2.7469,-2.7452,-2.7434,-2.7458,-2.7424,-2.7427,-2.7469,-2.7478,-2.7486,-2.749,-2.7384,0,0,0,0,0,-2.7675,-2.7671,-2.7631,-2.7644,-2.7636,-2.7597,-2.7592,-2.7566,-2.7545,-2.7536,-2.7511,-2.7492,-2.7484,-2.748,-2.7471,-2.7488,-2.7481,-2.7501,-2.7508,-2.7515,-2.7519,-2.7529,-2.7537,-2.7444,-2.7444,-2.7444,0,0,-2.7706,-2.768,-2.768,-2.7656,-2.7638,-2.7636,-2.7591,-2.759,-2.7588,-2.7536,-2.7539,-2.752,-2.7496,-2.7508,-2.7512,-2.7494,-2.7543,-2.752,-2.7525,-2.7525,-2.7533,-2.7542,-2.755,-2.7446,-2.7446,-2.7446,0,0,-2.7761,-2.7741,-2.775,-2.7734,-2.7708,-2.7682,-2.7685,-2.7651,-2.7636,-2.7638,-2.76,-2.7598,-2.7584,-2.757,-2.756,-2.7612,-2.7584,-2.761,-2.7652,-2.7662,-2.7669,-2.7676,-2.7696,-2.7703,-2.7614,-2.7614,-2.7614,0,-2.7803,-2.7798,-2.7759,-2.7761,-2.7752,-2.7705,-2.7716,-2.7701,-2.7674,-2.7669,-2.765,-2.7634,-2.7614,-2.7623,-2.7636,-2.7629,-2.7632,-2.7614,-2.7671,-2.7677,-2.7683,-2.7701,-2.7709,-2.7618,-2.7617,-2.7617,-2.7616,0,-2.7851,-2.7848,-2.7859,-2.7834,-2.7827,-2.7833,-2.7796,-2.7793,-2.7768,-2.7745,-2.7749,-2.7724,-2.771,-2.771,-2.7685,-2.7715,-2.7705,-2.7679,-2.7644,-2.7696,-2.7713,-2.7719,-2.7623,-2.7621,-2.762,-2.7619,0,0,-2.7944,-2.7899,-2.7903,-2.7892,-2.7861,-2.7858,-2.7863,-2.7849,-2.7848,-2.7831,-2.7835,-2.7826,-2.7802,-2.7791,-2.7765,-2.7774,-2.7819,-2.7746,-2.7745,-2.7762,-2.7853,-2.7874,-2.7882,-2.78,-2.7801,-2.7802,-2.7855,0,-2.7995,-2.8,-2.7966,-2.7981,-2.7979,-2.7935,-2.7939,-2.7921,-2.79,-2.7896,-2.7872,-2.7867,-2.7835,-2.7829,-2.7836,-2.7812,-2.7837,-2.7807,-2.7804,-2.7804,-2.7813,-2.7891,-2.7913,-2.7964,-2.7861,-2.7862,-2.7863,0,-2.8054,-2.8041,-2.8056,-2.8026,-2.8023,-2.8028,-2.8013,-2.8009,-2.7988,-2.7972,-2.7962,-2.7932,-2.7936,-2.7902,-2.7908,-2.7889,-2.7885,-2.7874,-2.7875,-2.7874,-2.7838,-2.7894,-2.798,-2.7988,-2.7873,-2.7872,-2.7872,0,-2.8123,-2.8109,-2.8116,-2.8108,-2.8072,-2.8076,-2.8062,-2.8039,-2.8034,-2.8021,-2.8017,-2.8005,-2.7999,-2.7991,-2.7959,-2.7937,-2.7969,-2.7933,-2.7957,-2.7958,-2.7966,-2.7967,-2.8055,-2.7962,-2.7962,-2.7962,-2.7962,0,-2.8184,-2.8195,-2.8146,-2.8151,-2.8163,-2.8124,-2.8137,-2.8118,-2.8099,-2.81,-2.8061,-2.8063,-2.802,-2.8018,-2.7993,-2.8003,-2.8,-2.7988,-2.7982,-2.7992,-2.7994,-2.799,-2.7986,-2.7964,-2.7964,-2.7963,-2.7963,0,-2.8262,-2.823,-2.8235,-2.8201,-2.8193,-2.8204,-2.8175,-2.8178,-2.8155,-2.8157,-2.8156,-2.812,-2.8115,-2.8083,-2.807,-2.8054,-2.8073,-2.8059,-2.808,-2.8076,-2.8103,-2.8102,-2.8193,-2.8204,-2.8104,-2.8105,-2.8106,0,-2.8303,-2.8311,-2.8278,-2.8276,-2.8264,-2.826,-2.8255,-2.8217,-2.8213,-2.8191,-2.8198,-2.819,-2.8182,-2.8177,-2.8151,-2.8142,-2.8128,-2.816,-2.8126,-2.8137,-2.813,-2.8131,-2.8132,-2.8168,-2.8169,-2.817,-2.8171,0,-2.8381,-2.8365,-2.8358,-2.8346,-2.8341,-2.833,-2.8316,-2.8317,-2.8276,-2.8273,-2.8268,-2.8262,-2.825,-2.8244,-2.8231,-2.8216,-2.8188,-2.8182,-2.8188,-2.8199,-2.8212,-2.8207,-2.8102,-2.818,-2.8179,-2.8179,-2.8178,-2.8178,-2.8443,-2.8448,-2.8427,-2.8421,-2.8407,-2.8396,-2.8398,-2.8376,-2.8371,-2.8358,-2.8337,-2.8335,-2.8316,-2.8295,-2.8284,-2.8283,-2.8266,-2.8273,-2.8275,-2.8278,-2.8285,-2.8211,-2.828,-2.828,-2.8279,-2.8279,-2.8279,0,-2.8519,-2.8504,-2.8499,-2.8482,-2.8478,-2.8451,-2.8435,-2.8434,-2.8433,-2.8417,-2.841,-2.8405,-2.8399,-2.8373,-2.8364,-2.8369,-2.8356,-2.8368,-2.8368,-2.8366,-2.8299,-2.8296,-2.8379,-2.8379,-2.8379,-2.8379,-2.8379,-2.8379,-2.8559,-2.8568,-2.855,-2.8552,-2.8535,-2.8534,-2.8528,-2.8518,-2.8505,-2.8502,-2.8496,-2.8479,-2.846,-2.845,-2.8443,-2.8436,-2.8435,-2.8452,-2.8441,-2.838,-2.837,-2.8361,-2.8358,-2.8452,-2.8452,-2.8507,-2.8508,-2.8508]},{"header":{"parameterUnit":"m.s-1","parameterCategory":1,"la1":30.2991,"la2":30.254,"lo1":-89.0895,"lo2":-89.0444,"dy":0.0017,"dx":0.0017,"nx":28,"ny":28,"refTime":"2025-09-10T21:00:00:Z","depth":0,"parameterNumber":3,"parameterNumberName":"V-component_of_WINDS"},"data":[0,0,0,0,0,0,0,0,0,0,0,0,0,0,0,0,0,0,0,0,0,0,0,0,0,0,0,0,0,0,0,0,0,0,0,0,0,0,0,0,0,0,0,0,0,0,0,0,0,0,0,0,0,0,0,0,0,0,-0.4752,-0.4752,0,-0.4762,-0.4762,-0.4762,-0.4774,-0.4774,-0.4774,-0.4775,-0.4786,-0.4786,-0.4786,0,0,0,0,0,0,0,0,0,0,0,0,0,-0.4746,-0.4746,-0.4752,-0.4752,-0.4752,-0.4762,-0.4762,-0.4762,-0.4774,-0.4774,-0.4774,-0.4775,-0.4786,-0.4786,-0.4786,0,0,0,0,0,0,0,0,0,0,0,0,0,-0.4752,-0.4746,-0.4752,-0.4759,-0.476,-0.4762,-0.4762,-0.4762,-0.4774,-0.4774,-0.4774,-0.4775,-0.4786,-0.4786,-0.4786,-0.4781,0,0,-0.4787,-0.4787,0,0,0,0,0,0,0,0,-0.4751,-0.4752,-0.4758,-0.4759,-0.476,-0.4767,-0.4764,-0.4769,-0.4774,-0.4769,-0.4775,-0.4775,-0.4779,-0.478,-0.4781,-0.4782,-0.4782,-0.4787,-0.4787,-0.4787,-0.4787,0,0,0,0,0,0,0,-0.4751,-0.4751,-0.4756,-0.4758,-0.4759,-0.4763,-0.4764,-0.4765,-0.4772,-0.4769,-0.477,-0.4771,-0.478,-0.4781,-0.4782,-0.4783,-0.4787,-0.4787,-0.4787,-0.4787,-0.4783,-0.4782,0,0,0,0,0,0,-0.4749,-0.4751,-0.4755,-0.4756,-0.4756,-0.4763,-0.4764,-0.4764,-0.4772,-0.4774,-0.4771,-0.4771,-0.4781,-0.4781,-0.4782,-0.4779,-0.4787,-0.4787,-0.4787,-0.4783,-0.4782,-0.4782,0,0,0,0,0,0,-0.4749,-0.4749,-0.4755,-0.4754,-0.4755,-0.4763,-0.4763,-0.4764,-0.4766,-0.4773,-0.4775,-0.477,-0.4781,-0.4782,-0.4782,-0.4779,-0.4787,-0.4787,-0.4783,-0.4783,-0.4782,-0.4771,0,0,0,0,0,0,-0.4749,-0.4749,-0.4747,-0.4754,-0.4755,-0.4754,-0.4763,-0.4764,-0.4766,-0.4767,-0.4774,-0.4775,-0.4781,-0.4782,-0.4782,-0.478,-0.4787,-0.4783,-0.4783,-0.4782,-0.4772,-0.477,-0.4769,0,0,0,0,0,-0.4748,-0.4743,-0.4747,-0.4747,-0.4752,-0.4754,-0.4754,-0.4761,-0.4765,-0.4764,-0.4769,-0.4775,-0.4779,-0.4782,-0.4782,-0.478,-0.4784,-0.4783,-0.4783,-0.4772,-0.4771,-0.4769,0,0,0,0,0,0,-0.4736,-0.4744,-0.4748,-0.4745,-0.4748,-0.4756,-0.4754,-0.4759,-0.4762,-0.4763,-0.4771,-0.4773,-0.4772,-0.4776,-0.4778,-0.4777,-0.4782,-0.4782,-0.4774,-0.4773,-0.4772,-0.4771,-0.4787,0,0,0,0,0,-0.4732,-0.4733,-0.474,-0.4736,-0.4738,-0.4746,-0.4747,-0.4752,-0.4756,-0.4758,-0.4763,-0.4768,-0.477,-0.4772,-0.4774,-0.4772,-0.4775,-0.4771,-0.477,-0.4769,-0.4769,-0.477,-0.4768,-0.4781,-0.4781,-0.4781,0,0,-0.4726,-0.473,-0.473,-0.4734,-0.4738,-0.4739,-0.4747,-0.4747,-0.4748,-0.4758,-0.4759,-0.4763,-0.4769,-0.4768,-0.4768,-0.4771,-0.4766,-0.4768,-0.4767,-0.4768,-0.4769,-0.4768,-0.4767,-0.478,-0.478,-0.478,0,0,-0.4715,-0.4717,-0.4715,-0.4719,-0.4724,-0.473,-0.4729,-0.4736,-0.4739,-0.474,-0.4748,-0.475,-0.4754,-0.4758,-0.4761,-0.4753,-0.4759,-0.4754,-0.4747,-0.4748,-0.4747,-0.4746,-0.4745,-0.4744,-0.4753,-0.4753,-0.4753,0,-0.4706,-0.4707,-0.4714,-0.4714,-0.4716,-0.4725,-0.4724,-0.4728,-0.4734,-0.4735,-0.4739,-0.4745,-0.4749,-0.4751,-0.4749,-0.475,-0.4751,-0.4753,-0.4747,-0.4746,-0.4745,-0.4744,-0.4743,-0.4753,-0.4753,-0.4753,-0.4753,0,-0.4697,-0.4697,-0.4695,-0.4701,-0.4703,-0.4703,-0.4711,-0.4712,-0.4717,-0.4723,-0.4724,-0.473,-0.4735,-0.4736,-0.4741,-0.4738,-0.474,-0.4745,-0.4751,-0.4743,-0.4742,-0.4742,-0.4752,-0.4752,-0.4752,-0.4752,0,0,-0.4677,-0.4688,-0.4687,-0.469,-0.4698,-0.4699,-0.47,-0.4704,-0.4706,-0.471,-0.4712,-0.4716,-0.4721,-0.4724,-0.4729,-0.473,-0.4725,-0.4735,-0.4735,-0.4734,-0.4725,-0.4722,-0.4721,-0.4729,-0.4729,-0.4729,-0.4725,0,-0.4668,-0.4669,-0.4676,-0.4676,-0.4678,-0.4687,-0.4688,-0.4693,-0.4698,-0.4701,-0.4707,-0.471,-0.4716,-0.4718,-0.4719,-0.4726,-0.4724,-0.4726,-0.4732,-0.4732,-0.4731,-0.472,-0.4717,-0.4712,-0.4724,-0.4724,-0.4724,0,-0.4657,-0.4661,-0.4661,-0.467,-0.4671,-0.4671,-0.4677,-0.4679,-0.4686,-0.469,-0.4694,-0.4701,-0.4703,-0.4708,-0.4713,-0.4714,-0.4717,-0.4721,-0.4721,-0.4722,-0.4728,-0.4722,-0.4711,-0.471,-0.4723,-0.4723,-0.4723,0,-0.4644,-0.465,-0.4651,-0.4653,-0.4663,-0.4664,-0.4668,-0.4675,-0.4677,-0.4683,-0.4685,-0.469,-0.4694,-0.4698,-0.4707,-0.471,-0.4711,-0.4716,-0.4715,-0.4715,-0.4715,-0.4715,-0.4705,-0.4716,-0.4716,-0.4716,-0.4716,0,-0.4634,-0.4634,-0.4645,-0.4646,-0.4647,-0.4655,-0.4656,-0.4661,-0.4667,-0.467,-0.4678,-0.4681,-0.4691,-0.4696,-0.4702,-0.4706,-0.4707,-0.4711,-0.4713,-0.471,-0.471,-0.4713,-0.4714,-0.4716,-0.4716,-0.4716,-0.4716,0,-0.462,-0.4628,-0.4629,-0.4639,-0.4641,-0.4641,-0.465,-0.4652,-0.4658,-0.4661,-0.4663,-0.4672,-0.4678,-0.4687,-0.4694,-0.4699,-0.4701,-0.4704,-0.4699,-0.47,-0.4699,-0.4699,-0.4691,-0.469,-0.4701,-0.4701,-0.4701,0,-0.4613,-0.4613,-0.4623,-0.4625,-0.4629,-0.4633,-0.4636,-0.4645,-0.4648,-0.4656,-0.4657,-0.4663,-0.4669,-0.4677,-0.4685,-0.4692,-0.4695,-0.4692,-0.4696,-0.4694,-0.4696,-0.4696,-0.4697,-0.4691,-0.4691,-0.4691,-0.469,0,-0.4601,-0.4605,-0.4609,-0.4614,-0.4618,-0.4623,-0.4628,-0.463,-0.4641,-0.4644,-0.4649,-0.4654,-0.4662,-0.4668,-0.4676,-0.4681,-0.4688,-0.4689,-0.4689,-0.4687,-0.4685,-0.4687,-0.4697,-0.4689,-0.4689,-0.4689,-0.4689,-0.469,-0.4591,-0.4592,-0.4599,-0.4604,-0.4609,-0.4614,-0.4617,-0.4623,-0.4628,-0.4635,-0.4641,-0.4646,-0.4654,-0.4666,-0.4671,-0.4676,-0.4679,-0.4679,-0.4679,-0.4679,-0.4678,-0.4683,-0.4677,-0.4677,-0.4677,-0.4677,-0.4677,0,-0.458,-0.4585,-0.4589,-0.4597,-0.4601,-0.4607,-0.4613,-0.4617,-0.4621,-0.4628,-0.4633,-0.464,-0.4647,-0.4656,-0.4663,-0.4666,-0.4669,-0.4667,-0.4668,-0.4669,-0.4675,-0.4674,-0.4665,-0.4665,-0.4665,-0.4665,-0.4665,-0.4665,-0.4575,-0.4577,-0.4582,-0.4588,-0.4594,-0.4599,-0.4603,-0.4608,-0.4614,-0.4621,-0.4626,-0.4632,-0.464,-0.4649,-0.4655,-0.4658,-0.4661,-0.4658,-0.4662,-0.4667,-0.4668,-0.467,-0.4669,-0.4658,-0.4658,-0.4656,-0.4656,-0.4656]}]]